SCP
0 0 0 0 0 0 0 0 0 0 0 0 0 0 0 0 0 0 0 0 0 0 0 0 0 0 0 0 0 0 0 0 0 0 0 0 0 0 0 0 0 0 0
0 0 0 0 0 0 0 0 0 0 0 0 0 0 0 0 0 0 0 0 0 0 0 0 0 0 0 0 0 0 0 0 0 0 0 0 0 0 0 0 0 0 0
0 0 0 0 0 0 0 0 0 0 0 0 0 0 0 0 0 0 0 0 0 0 0 0 0 0 0 0 0 0 0 0 0 0 0 0 0 0 0 0 0 0 0
0 0 0 0 0 0 0 0 0 0 0 0 0 0 0 0 0 0 0 0 0 0 0 0 0 0 0 0 0 0 0 0 0 0 0 0 0 0 0 0 0 0 0
0 0 0 0 0 0 0 0 0 0 0 0 0 0 0 0 0 0 0 0 0 0 0 0 0 0 0 0 0 0 0 0 0 0 0 0 0 0 0 0 0 0 0
0 0 0 0 0 0 0 0 0 0 0 0 0 0 0 0 0 0 0 0 0 0 0 0 0 0 0 0 0 0 0 0 0 0 0 0 0 0 0 0 0 0 0
0 0 1 0 0 0 0 0 0 0 0 0 0 0 0 0 0 0 0 0 0 0 0 0 0 0 0 0 0 0 0 0 0 0 0 0 0 0 0 0 0 0 0
0 0 1 1 0 0 0 0 0 0 0 0 0 0 0 0 0 0 0 0 0 0 0 0 0 0 0 0 0 0 0 0 0 0 0 0 0 0 0 0 0 0 0
0 1 1 0 0 0 0 0 0 0 0 0 0 0 0 0 0 0 0 0 0 0 0 0 0 0 0 0 0 0 0 0 0 0 0 0 0 0 0 0 0 0 0
1 1 1 0 0 0 0 0 0 0 0 0 0 0 0 0 0 0 0 0 0 0 0 0 0 0 0 0 0 0 0 0 0 0 0 0 0 0 0 0 0 0 0
1 1 0 0 0 0 0 0 0 0 0 0 0 0 0 0 0 0 0 0 0 0 0 0 0 0 0 0 0 0 0 0 0 0 0 0 0 0 0 0 0 0 0
1 1 0 0 0 0 0 0 0 0 0 0 0 0 0 0 0 0 0 0 0 0 0 0 0 0 0 0 0 0 0 0 0 0 0 0 0 0 0 0 0 0 0
0 1 1 0 0 0 0 0 0 0 0 0 0 0 0 0 0 0 0 0 0 0 0 0 0 0 0 0 0 0 0 0 0 0 0 0 0 0 0 0 0 0 0
0 0 1 1 1 1 1 1 1 0 0 0 0 0 0 0 0 0 0 0 0 0 0 0 0 0 0 0 0 0 0 0 0 0 0 0 0 0 0 0 0 0 0
0 0 1 1 1 1 1 1 1 1 0 0 0 0 0 0 0 0 0 0 0 0 0 0 0 0 0 0 0 0 0 0 0 0 0 0 0 0 0 0 0 0 0
0 0 0 1 1 1 1 1 1 1 1 0 0 0 0 0 0 0 0 0 0 0 0 0 0 0 0 0 0 0 0 0 0 0 0 0 0 0 0 0 0 0 0
0 0 0 1 1 1 1 1 1 1 1 1 0 0 0 0 0 0 0 0 0 0 0 0 0 0 0 0 0 0 0 0 0 0 0 0 0 0 0 0 0 0 0
0 0 0 0 1 1 1 1 1 1 1 1 1 0 0 0 0 0 0 0 0 0 0 0 0 0 0 0 0 0 0 0 0 0 0 0 0 0 0 0 0 0 0
0 0 0 0 0 1 1 1 1 1 1 1 1 0 0 0 0 0 0 0 0 0 0 0 0 0 0 0 0 0 0 0 0 0 0 0 0 0 0 0 0 0 0
0 0 0 0 0 1 1 1 1 1 1 1 0 0 0 0 0 0 0 0 0 0 0 0 0 0 0 0 0 0 0 0 0 0 0 0 0 0 0 0 0 0 0
0 0 0 0 1 1 1 1 1 1 0 0 0 0 0 0 0 0 0 0 0 0 0 0 0 0 0 0 0 0 0 0 0 0 0 0 0 0 0 0 0 0 0
0 0 0 0 1 1 1 1 0 0 0 0 0 0 0 0 0 0 0 0 0 0 0 0 0 0 0 0 0 0 0 0 0 0 0 0 0 0 0 0 0 0 0
0 0 0 0 1 1 1 0 0 0 0 0 0 0 0 0 0 0 0 0 0 0 0 0 0 0 0 0 0 0 0 0 0 0 0 0 0 0 0 0 0 0 0
0 0 0 0 1 1 0 0 0 0 0 0 0 0 0 0 0 0 0 0 0 0 0 0 0 0 0 0 0 0 0 0 0 0 0 0 0 0 0 0 0 0 0
0 0 0 0 0 0 0 0 0 0 0 0 0 0 0 0 0 0 0 0 0 0 0 0 0 0 0 0 0 0 0 0 0 0 0 0 0 0 0 0 0 0 0
0 0 0 0 0 0 0 0 0 0 0 0 0 0 0 0 0 0 0 0 0 0 0 0 0 0 0 0 0 0 0 0 0 0 0 0 0 0 0 0 0 0 0
Wind_Speed
10 14 17 17 16 15 14 13 12 11 10 10 10 10 11 10 8 7 6 5 5 6 6 5 4 4 7 9 10 9 9 8 8 8 7 6 5 5 4 2 4 3 2
13 15 17 17 16 15 14 13 12 11 10 9 9 9 10 9 8 7 6 6 6 6 7 7 7 7 8 9 9 9 7 6 6 6 3 0 2 5 5 3 4 4 3
14 15 17 16 16 15 14 13 12 11 10 9 9 9 9 9 8 7 7 7 6 7 7 8 9 9 9 9 8 7 6 5 5 4 3 4 2 4 6 4 4 5 5
15 14 15 16 16 15 14 13 12 11 10 9 9 9 9 9 8 7 7 7 7 7 7 8 9 9 9 8 7 6 5 4 5 3 4 5 5 5 8 7 6 6 7
14 14 15 16 16 15 14 13 12 11 10 9 9 9 9 8 8 7 7 7 7 7 7 7 8 8 7 7 6 5 5 5 3 5 5 5 5 5 8 9 8 8 9
14 14 16 15 16 15 14 13 12 11 10 9 9 8 7 7 7 7 7 7 7 6 6 6 6 6 5 5 4 4 4 5 6 4 5 5 5 6 8 9 9 10 10
13 13 16 15 15 15 14 13 12 11 10 9 8 7 6 5 5 6 7 7 6 5 4 4 4 4 4 3 3 4 5 5 7 5 5 5 5 7 9 9 9 10 11
13 12 14 15 14 14 14 13 12 11 10 9 8 7 5 3 3 5 7 6 4 3 2 3 4 4 3 3 4 5 5 6 6 5 5 5 5 8 9 10 10 11 12
12 12 12 14 14 14 13 12 12 10 9 8 7 6 4 4 3 5 7 5 3 2 2 3 3 3 3 4 4 5 5 4 6 4 5 4 6 8 9 9 9 10 10
10 11 12 12 12 13 13 12 11 10 9 8 6 5 6 5 4 6 6 5 2 2 3 3 4 4 4 4 4 4 3 5 4 3 3 4 7 8 8 8 9 9 10
9 10 11 12 12 11 11 11 12 10 9 9 7 7 6 5 5 6 5 4 2 2 3 3 4 4 2 4 4 2 3 3 4 3 3 6 7 7 7 8 9 9 10
12 12 11 12 12 12 9 9 8 8 9 8 7 8 6 4 3 3 6 4 3 3 3 4 4 2 2 1 3 2 2 3 3 3 4 6 6 5 7 9 10 11 12
12 12 12 12 12 12 9 8 6 6 6 7 7 7 5 5 4 3 3 5 4 3 3 4 2 2 3 3 3 3 4 4 3 2 5 7 5 6 8 10 11 11 12
10 12 13 13 12 13 11 9 8 7 6 6 7 8 6 4 4 4 3 3 2 2 2 2 2 3 3 3 4 4 4 3 2 2 6 9 8 9 10 11 11 12 12
10 11 13 14 14 13 11 9 9 9 8 8 7 8 8 6 5 5 3 3 2 2 3 2 2 3 3 3 3 4 4 3 2 1 4 11 12 11 12 12 12 12 12
11 11 12 14 15 14 12 11 10 9 9 8 8 9 9 6 5 5 4 4 3 3 3 3 3 3 2 3 3 3 3 2 0 1 3 8 13 12 12 13 13 13 13
11 10 11 13 15 15 14 13 10 9 10 9 9 10 10 8 7 6 5 4 4 4 4 3 4 2 3 2 2 3 2 2 1 3 3 3 6 10 12 13 13 13 13
12 11 10 10 14 15 14 12 9 10 10 9 8 8 10 9 9 7 6 5 5 4 4 3 2 2 3 3 3 2 2 1 3 3 3 3 3 3 6 10 12 12 13
13 12 10 12 14 14 14 11 10 9 9 8 8 7 8 9 9 8 6 6 6 4 4 4 3 3 3 4 4 3 2 1 3 3 3 3 3 2 3 5 8 10 12
13 12 11 11 12 13 11 9 7 7 7 6 6 8 10 9 10 9 7 7 6 5 4 4 5 4 4 4 4 3 1 1 3 3 2 2 0 2 4 7 7 8 11
12 12 12 12 13 12 10 10 9 8 7 6 6 9 10 10 10 9 7 7 5 5 5 4 4 4 5 5 4 2 2 2 3 3 2 3 2 3 5 8 8 8 7
14 13 12 13 14 15 12 10 7 8 6 7 7 8 10 10 10 8 9 7 7 6 6 5 4 2 3 4 4 4 2 2 2 3 3 3 4 4 6 9 10 10 10
15 14 11 13 15 15 14 10 10 8 7 6 7 7 8 9 9 9 9 8 7 6 6 5 4 3 2 3 4 4 4 3 5 4 4 4 5 5 7 9 10 11 11
16 13 13 13 15 16 16 15 17 12 10 8 8 8 9 9 9 9 10 9 8 6 6 5 4 3 2 2 1 2 3 4 5 5 4 5 6 8 9 8 10 11 10
16 13 13 14 15 16 16 17 16 13 11 11 11 12 10 9 9 9 9 8 8 6 6 5 4 3 2 1 2 2 2 3 5 5 8 8 7 7 8 9 10 9 9
14 13 13 15 16 16 16 16 16 18 18 18 15 13 10 7 8 9 9 8 8 6 6 5 3 3 1 0 2 2 3 4 4 5 8 10 11 9 11 9 8 8 9
Wind_Direction
157 155 153 150 144 139 135 130 125 121 123 127 132 132 127 120 111 103 93 83 65 47 40 40 43 107 128 125 114 102 88 74 67 63 53 36 15 355 347 341 287 239 37
152 154 150 150 146 143 139 134 128 125 126 131 135 135 132 124 115 106 94 81 65 48 41 41 48 78 99 106 105 96 84 69 62 65 43 7 23 344 334 306 287 325 326
151 153 153 152 149 146 142 137 133 130 131 134 138 136 133 127 114 102 88 73 61 51 48 48 54 64 75 81 86 82 71 52 43 44 286 312 4 352 325 309 268 271 271
154 155 157 150 152 150 146 142 137 135 135 134 133 133 132 125 113 101 85 71 64 60 58 54 56 58 61 62 61 55 43 27 34 327 309 351 338 3 323 310 288 268 269
157 159 147 152 155 154 150 147 143 141 141 137 133 132 131 127 122 108 94 81 74 69 65 62 59 56 52 47 38 25 15 13 360 289 343 341 331 355 322 310 303 293 286
161 161 149 157 158 158 156 153 150 148 148 145 141 138 136 137 133 120 109 99 90 80 71 64 60 55 46 36 22 8 2 1 297 325 337 337 337 349 316 307 302 295 292
163 162 156 161 162 163 162 160 158 156 156 156 154 151 150 153 147 133 122 115 106 92 75 60 52 47 38 18 360 350 353 344 308 328 333 337 349 333 311 305 299 293 287
163 165 159 164 165 167 169 168 166 164 163 163 164 163 154 142 140 145 137 129 120 102 66 40 32 24 13 358 351 351 350 327 308 322 335 332 2 320 310 308 303 296 287
165 169 168 173 174 173 174 173 173 170 167 168 173 167 126 80 88 143 139 133 120 75 30 16 11 11 10 7 1 356 350 326 295 325 329 337 352 317 314 320 321 319 312
171 179 177 179 182 183 182 177 175 171 167 166 164 139 115 105 107 121 140 111 82 27 12 7 11 22 34 32 25 17 340 278 306 326 325 6 340 326 335 346 349 350 352
182 189 189 187 187 188 187 178 177 171 166 167 164 142 164 180 160 153 99 86 67 38 28 26 36 47 55 94 63 18 280 320 344 341 356 8 341 343 354 9 14 16 18
190 193 196 197 192 191 187 182 187 183 178 189 176 173 187 178 158 135 113 97 96 100 103 74 72 99 282 59 105 244 333 343 340 352 25 4 349 4 31 41 38 34 31
195 192 198 200 197 196 189 189 187 184 183 188 183 180 180 176 169 179 166 154 157 162 142 118 143 56 32 26 359 4 360 343 341 352 35 19 23 45 52 47 38 30 24
209 200 197 199 198 200 196 193 191 186 185 184 183 184 182 178 180 172 174 149 150 131 102 86 60 65 44 28 4 359 359 344 346 3 51 40 52 60 56 47 36 27 18
226 213 204 199 199 198 199 197 197 193 190 186 181 185 186 182 178 164 152 136 121 108 111 96 76 63 38 25 19 7 356 347 352 28 85 58 57 60 54 44 32 21 11
232 222 207 203 201 199 197 196 197 195 190 188 184 186 187 184 171 155 145 133 120 109 96 93 79 66 42 15 5 0 343 333 340 138 111 86 64 58 53 41 28 16 5
242 229 213 207 202 201 200 197 195 194 190 188 186 186 185 178 163 150 139 131 120 114 111 99 85 58 39 8 350 349 336 313 185 150 129 104 90 68 53 37 23 11 360
246 235 218 204 204 201 200 196 192 192 189 186 180 177 176 168 155 143 132 125 122 115 107 92 72 55 31 354 340 339 315 255 198 153 139 116 83 62 57 32 13 3 353
245 235 220 206 204 199 196 192 189 187 184 177 169 164 159 150 143 132 123 120 122 113 103 93 66 36 20 355 336 329 321 224 172 170 151 123 88 35 4 11 354 349 343
247 238 223 205 199 190 184 180 175 170 163 153 150 146 142 138 134 123 118 121 121 117 112 103 88 57 23 346 325 331 10 167 190 175 186 184 180 336 336 343 337 335 330
236 225 215 200 186 177 175 174 168 159 144 130 128 132 133 131 129 123 123 122 121 112 108 103 90 62 33 352 328 323 181 183 202 191 240 261 257 292 313 334 335 328 318
228 216 205 194 182 177 176 171 161 136 118 111 111 118 124 126 126 124 127 123 119 114 104 89 78 66 47 15 348 325 312 204 174 212 271 270 283 293 315 326 324 318 315
223 212 199 190 180 176 167 148 131 116 113 111 117 114 118 121 121 123 123 121 118 112 102 89 75 63 51 44 15 351 328 321 319 274 275 280 288 302 314 316 312 312 307
217 207 196 185 178 171 163 162 161 159 151 146 138 127 120 117 120 121 120 118 115 110 108 98 83 71 46 29 45 6 330 318 297 301 274 269 286 297 299 301 305 302 297
212 199 188 178 175 170 170 169 168 153 134 129 128 126 120 119 121 122 121 118 114 110 107 106 100 79 58 12 341 325 292 273 265 280 294 301 297 291 296 295 294 291 295
207 190 180 174 172 170 169 168 162 146 141 140 141 136 131 130 126 125 123 119 117 114 114 113 109 103 64 347 291 290 295 291 296 286 288 298 301 301 299 290 284 287 295